Theta_e
346 355 365 363 359 358 358 358 361 362 363 362 361 360 361 362 361 359 359 359 359 358 359 359 358 356 355 354 351 350 349 350 351 351 349 348 345 341 341 341 341 336 341
349 355 365 364 361 359 358 358 361 362 362 362 360 359 360 360 360 359 359 359 358 358 358 358 358 357 356 354 353 352 350 349 348 348 347 345 343 342 342 342 343 340 343
353 356 362 364 362 360 359 359 360 361 361 361 361 360 360 360 359 359 359 359 358 358 357 357 357 356 355 355 354 352 351 349 348 347 347 338 336 343 343 344 344 343 343
354 355 358 364 362 360 359 359 359 360 361 361 361 359 359 359 359 359 360 359 358 358 357 357 356 355 355 354 353 352 352 352 350 350 347 345 339 342 342 344 344 344 343
350 354 358 363 361 360 359 359 359 359 360 360 360 359 358 358 359 360 360 359 359 358 358 357 356 356 355 355 354 353 354 354 354 353 350 347 343 342 345 344 344 344 343
350 355 361 363 362 362 359 359 358 359 359 360 359 358 357 357 358 359 359 359 359 358 357 357 357 356 356 356 355 355 355 354 353 344 344 343 346 345 347 347 345 342 343
352 353 357 363 363 362 359 358 360 359 358 359 359 358 357 357 357 357 358 359 359 360 359 359 359 358 358 357 357 356 355 354 347 342 344 340 339 348 350 348 347 346 343
350 351 355 361 362 362 362 360 359 359 358 358 358 358 358 357 357 356 356 356 357 357 358 358 359 358 358 357 356 356 355 355 350 346 345 341 341 348 350 350 349 345 345
350 348 348 351 356 361 361 360 359 358 358 358 357 357 357 357 357 356 356 357 357 358 358 358 358 358 358 358 357 357 356 355 349 346 348 345 347 348 351 353 351 347 345
343 340 341 343 348 348 353 360 360 359 359 358 357 357 356 356 357 356 355 355 357 358 358 358 357 357 357 357 357 357 354 350 343 341 346 346 351 351 352 355 353 351 347
338 334 336 340 342 345 348 352 357 357 359 358 357 358 354 349 347 350 352 355 357 357 357 357 357 357 357 357 357 354 345 335 334 339 346 350 353 353 355 356 356 354 351
331 331 334 337 345 345 348 345 348 349 350 350 350 348 346 345 343 346 348 353 355 356 357 356 356 356 357 351 344 344 335 333 337 344 345 351 353 354 355 357 357 355 353
332 333 330 339 342 336 334 341 343 343 344 344 345 345 342 342 344 342 342 345 344 350 350 351 349 350 346 341 337 334 335 333 336 337 340 351 354 355 357 359 358 356 354
327 326 328 333 339 334 330 335 337 338 341 344 345 344 341 341 343 332 331 327 339 341 343 343 344 343 337 335 336 335 335 331 330 334 335 345 349 353 356 358 357 356 352
328 329 331 332 338 338 335 335 334 335 337 332 341 336 334 331 329 325 326 324 324 329 339 339 338 336 333 331 333 332 330 330 329 331 332 342 348 349 351 357 357 353 355
334 334 332 331 331 331 331 328 329 328 329 327 329 330 332 328 325 323 322 317 319 321 324 329 334 333 330 331 330 330 331 333 332 329 329 332 343 346 350 355 354 349 349
328 331 329 328 327 326 326 325 325 325 326 326 324 323 324 322 320 321 319 315 318 321 320 318 317 318 318 320 319 322 324 323 326 328 328 329 337 347 351 355 354 351 348
324 324 326 329 324 323 323 323 324 324 324 324 324 324 324 325 322 321 318 317 320 320 318 317 317 315 315 315 315 316 317 319 323 325 329 329 336 338 343 354 354 353 353
323 323 323 324 322 321 321 321 321 321 323 322 322 324 323 325 325 322 322 322 321 322 320 319 317 317 315 315 316 316 314 317 318 332 333 334 335 337 340 349 348 349 349
323 323 322 323 320 319 318 317 317 317 319 320 321 322 324 325 325 322 324 323 324 321 320 318 317 318 316 315 317 315 313 312 319 330 330 330 329 330 332 333 334 338 344
323 322 321 320 319 315 315 312 311 310 313 317 319 323 322 323 323 322 322 322 324 322 320 320 317 318 317 316 311 312 311 313 320 323 328 327 326 326 330 331 332 332 335
321 320 319 319 319 315 314 315 313 312 314 316 318 320 321 323 323 325 323 322 323 321 320 319 318 320 319 319 313 307 304 309 312 315 323 323 320 323 326 327 328 331 332
319 319 319 317 319 316 314 312 312 310 309 312 312 315 319 322 322 321 322 322 321 320 317 319 319 318 316 317 317 312 306 304 307 310 315 319 321 322 320 321 325 331 330
319 318 318 316 314 316 314 310 308 305 303 305 308 310 315 318 320 322 321 319 318 318 319 319 322 320 318 315 318 319 314 310 305 303 310 324 321 320 317 320 322 327 329
308 314 313 313 313 312 314 311 308 307 306 307 308 307 308 310 314 316 315 315 315 315 317 318 319 318 319 316 315 314 313 310 308 309 306 306 320 320 321 321 322 324 325
305 305 305 303 304 304 304 306 307 307 307 307 308 308 308 307 307 310 315 312 312 311 311 312 315 315 314 315 314 313 312 309 308 306 304 303 305 316 319 320 321 322 324
Wind_Speed
2 4 8 9 11 11 14 15 14 14 14 14 13 13 12 12 11 12 12 11 10 11 11 12 13 14 14 14 12 11 11 11 11 12 12 12 11 12 12 14 13 9 14
6 4 7 9 8 10 12 12 12 13 13 13 12 11 11 10 10 10 9 9 10 10 10 10 11 11 11 11 10 9 9 9 9 10 10 8 9 9 11 13 13 10 13
6 3 4 8 9 8 9 11 11 10 11 11 10 10 9 9 9 8 7 7 7 8 8 7 7 7 8 8 7 7 6 5 5 6 9 3 2 6 8 10 13 13 13
5 5 4 7 8 9 8 8 9 10 9 9 9 8 8 8 7 6 6 5 5 6 5 4 4 3 4 5 5 4 3 3 0 2 2 2 2 2 5 8 11 14 13
7 6 3 5 7 8 8 6 6 8 8 8 8 7 6 6 5 4 4 4 4 4 4 3 2 1 1 1 2 2 2 1 2 2 3 3 4 6 7 7 8 12 14
5 4 6 7 5 4 6 7 6 4 3 4 5 4 3 3 3 3 2 1 1 2 2 3 3 3 4 4 4 3 2 2 2 1 3 6 7 11 12 10 8 7 11
5 3 6 10 9 6 3 2 5 7 7 6 5 4 2 1 1 2 1 2 2 4 5 4 4 4 6 6 7 6 6 5 1 3 4 3 2 14 14 12 10 10 9
8 7 7 13 13 11 10 6 4 3 3 4 4 4 4 4 4 4 5 5 6 7 7 6 5 6 7 8 8 8 9 9 4 5 6 4 5 11 15 14 14 12 12
5 3 4 5 3 11 12 11 9 7 5 5 6 6 6 7 7 7 7 8 8 8 7 7 8 9 9 9 8 8 10 11 5 4 6 4 7 13 18 17 15 14 14
9 6 6 4 4 3 2 11 12 10 8 7 6 6 6 7 8 8 8 8 9 10 9 10 11 10 10 10 10 10 9 10 4 6 4 4 10 12 18 18 18 17 16
7 6 5 4 5 2 2 3 4 4 3 5 6 7 6 3 5 7 8 10 12 13 11 12 12 11 12 11 11 7 7 3 5 4 4 10 10 11 15 20 20 19 17
4 4 5 6 6 2 2 5 4 3 2 3 4 4 2 3 5 7 9 11 14 14 12 14 12 12 11 4 3 5 3 5 4 4 4 11 8 10 13 18 17 15 16
3 6 8 6 5 6 5 4 3 2 3 3 5 3 4 3 3 3 4 3 4 7 5 6 4 4 4 3 4 2 4 5 3 4 7 14 11 5 10 16 18 16 16
6 5 7 9 6 5 2 1 2 3 3 3 3 1 3 2 3 4 3 4 3 2 4 3 2 2 3 5 5 6 4 4 3 3 7 15 12 14 8 9 13 12 11
5 3 4 5 8 7 7 7 7 7 4 6 5 5 2 3 3 4 3 3 4 4 2 2 1 2 3 4 4 5 5 6 6 4 4 12 15 13 10 10 11 7 8
5 4 3 7 6 7 6 7 5 4 5 4 4 2 3 1 2 3 3 4 4 4 3 2 2 1 3 2 4 5 5 5 5 5 4 5 11 10 11 10 8 8 9
4 4 4 6 6 6 5 5 4 4 6 6 5 7 7 5 4 2 1 3 3 4 5 4 4 3 4 4 4 5 5 6 5 6 6 5 4 3 7 11 13 12 11
8 7 4 4 6 7 6 4 3 4 4 6 6 4 8 7 6 4 4 3 2 1 3 3 3 3 2 3 3 4 4 5 6 6 5 4 4 3 4 8 8 9 12
8 8 6 4 5 6 5 4 4 5 4 4 4 3 4 5 6 5 5 5 6 3 3 2 1 1 2 4 4 3 3 3 5 4 5 5 5 5 4 7 8 8 7
6 6 5 3 3 1 2 3 3 4 3 1 2 3 6 4 5 5 5 6 7 6 7 5 3 3 1 3 4 4 5 3 2 3 4 4 5 7 6 7 6 6 11
3 4 3 3 2 3 2 1 1 1 2 2 2 2 1 3 5 6 5 1 4 5 8 9 5 4 3 2 4 5 4 2 3 3 3 4 6 6 8 7 4 3 4
7 1 2 3 3 3 3 2 2 2 3 2 1 3 3 3 4 4 4 3 6 0 7 7 9 7 3 2 2 1 5 5 4 4 4 4 6 4 6 6 6 6 4
2 5 7 8 8 7 5 1 2 2 2 2 3 3 4 5 5 4 4 3 2 4 9 5 2 10 8 5 1 3 3 2 3 2 4 4 5 4 4 4 5 5 5
8 8 9 8 7 6 4 3 4 4 4 4 4 4 5 5 6 6 6 5 5 3 6 7 4 9 4 12 3 4 3 3 2 3 2 4 4 6 4 4 4 5 5
5 6 3 3 6 7 7 6 5 6 4 5 6 8 7 5 7 7 6 7 6 5 5 5 4 6 5 4 4 2 2 1 1 2 2 1 2 2 3 3 2 3 4
5 5 5 6 6 6 6 6 3 5 6 5 6 6 6 5 5 6 7 7 6 6 6 4 5 5 5 4 2 2 2 1 2 0 1 1 1 1 1 2 3 3 3
Wind_Direction
184 177 160 147 140 127 119 116 108 96 89 84 83 82 78 79 80 89 94 94 90 87 89 91 90 88 88 89 89 91 87 84 84 85 84 107 93 104 106 105 104 102 103
116 140 156 145 143 132 122 116 112 108 100 97 96 94 93 89 94 97 96 99 102 96 84 76 83 89 90 92 96 96 93 87 80 79 75 81 94 109 117 118 115 113 109
81 88 117 134 133 126 119 123 121 115 113 113 112 112 109 110 112 109 107 105 99 94 93 91 84 90 101 104 100 94 92 85 73 78 60 49 71 117 127 130 126 123 118
104 75 88 130 127 127 125 126 130 130 128 122 121 121 123 125 125 123 121 120 116 111 105 101 102 98 93 96 97 99 97 103 82 295 320 278 295 164 159 152 143 136 130
49 38 76 106 121 127 131 133 139 141 145 145 139 139 140 137 135 133 131 140 132 121 129 144 165 181 120 167 179 180 173 254 275 327 319 268 232 209 200 199 172 153 143
69 91 89 80 77 104 137 143 136 130 141 146 153 154 157 158 165 159 135 154 155 156 201 207 202 226 248 256 263 267 255 237 263 225 270 263 242 207 204 201 204 189 159
111 110 114 119 115 106 107 140 161 165 171 174 175 178 201 224 270 280 278 284 278 263 241 236 257 269 277 288 295 297 292 289 247 242 254 264 255 198 196 204 216 209 193
148 163 165 153 151 150 144 154 184 205 189 182 193 202 208 218 232 244 253 245 242 248 255 264 262 262 265 268 278 295 300 299 299 233 252 264 198 192 201 203 210 209 204
75 73 32 354 332 157 159 163 174 184 204 215 213 214 217 222 226 228 239 248 256 258 256 257 251 248 252 263 270 268 277 287 273 255 239 242 233 203 206 209 213 213 210
69 44 27 351 288 297 238 176 171 181 201 210 221 236 257 261 250 245 243 254 254 253 252 251 254 256 258 258 260 269 296 307 301 280 267 237 241 220 211 209 207 212 214
61 23 349 318 318 295 307 316 330 284 249 218 230 236 248 261 273 277 271 261 256 252 249 249 246 250 256 258 261 272 290 298 269 263 243 235 230 247 229 217 208 208 208
31 5 15 343 350 325 331 16 11 341 312 302 306 281 259 270 270 277 270 273 269 260 247 245 246 250 257 253 269 282 302 299 292 291 272 259 242 218 229 225 228 214 212
30 5 1 353 356 21 9 27 13 329 324 290 283 275 297 304 308 294 278 291 289 270 239 244 235 237 265 293 296 277 285 284 271 284 301 296 303 259 251 228 223 217 212
59 24 358 353 4 91 121 245 307 329 327 314 291 321 296 299 294 303 305 317 313 313 276 254 249 273 282 297 288 288 262 287 270 266 272 290 295 298 308 229 227 226 234
82 27 8 354 15 9 21 13 4 360 349 336 352 40 8 13 330 331 325 353 354 342 314 280 247 251 279 290 284 279 282 256 252 250 273 290 280 277 273 246 240 223 225
119 105 70 47 34 36 21 14 4 354 346 24 35 22 94 144 349 341 354 2 356 352 346 1 348 309 283 313 311 288 281 289 290 294 269 258 256 280 291 263 222 198 229
101 103 71 74 69 70 54 41 34 25 38 26 11 16 358 353 360 41 57 1 340 345 5 14 23 23 12 350 342 329 323 325 322 324 315 315 334 271 248 239 209 208 217
138 134 135 141 127 108 98 97 85 58 57 45 44 46 30 34 34 6 340 351 320 34 26 9 5 355 336 339 327 326 327 330 327 324 328 333 356 357 360 211 220 232 240
166 160 169 175 154 147 136 127 124 116 97 109 107 81 50 37 35 33 21 357 344 8 23 356 319 4 311 331 328 331 313 318 321 345 22 26 30 32 17 21 54 55 55
175 181 161 186 196 148 63 41 13 24 33 77 127 136 132 104 68 64 33 16 12 1 347 345 330 315 285 320 325 330 312 339 328 27 38 43 40 39 38 42 30 25 42
204 198 178 212 321 358 342 1 26 243 263 297 267 163 153 149 135 131 138 64 12 12 343 342 316 323 316 11 6 332 314 16 72 13 34 33 42 36 32 30 32 21 11
202 157 233 231 234 229 209 200 196 221 264 272 283 288 229 202 169 154 156 175 155 255 329 331 344 317 293 256 134 138 328 336 349 12 31 26 33 40 40 31 24 22 2
249 202 213 214 221 228 232 329 350 357 314 319 290 280 255 223 220 200 225 211 226 236 238 216 293 308 315 324 254 171 267 242 333 340 41 50 47 55 51 28 18 25 26
220 212 222 224 234 250 262 266 230 225 238 240 230 236 234 250 243 222 226 220 224 222 233 233 202 236 272 277 282 226 220 174 126 321 11 74 65 59 33 43 23 17 31
246 228 309 290 275 287 301 322 324 313 316 328 317 312 281 247 240 256 234 206 194 195 220 206 213 214 210 212 228 232 238 172 268 181 230 58 61 51 3 19 45 47 53
30 33 35 13 355 1 1 353 315 281 293 304 296 295 290 296 292 262 246 210 200 192 196 205 176 179 178 219 221 230 148 229 263 73 77 300 161 103 52 36 28 35 70